User: anonymous   Login
Location: Unspecified
(0.0000°N, 0.0000°E)
Time: 00:52:59
(UTC+00:00)
Language:

QIANFAN-71 - Orbit

View from above orbital plane
View from above orbital plane
View from above satellite
View from above satellite

Ground track
Ground track

The orbit is defined by the following mean orbital elements,

1 62801U          26145.61220811 +.00000000 +00000-0 +14005-3 0 00002
2 62801  88.9724  86.0752 0013597 231.3627 128.6308 13.51013668    06
Epoch (UTC): 25 May 2026 14:41:34
Eccentricity: 0.0013597
inclination: 88.9724°
perigee height: 1058 km
apogee height: 1079 km
right ascension of ascending node: 86.0752°
argument of perigee: 231.3627°
revolutions per day: 13.51013668
mean anomaly at epoch: 128.6308°

The dashed part of the orbit path shows where the satellite is in the earth's shadow,  

DLR